Location: Cathedral Gorge
(37.8167°N, 114.4167°W)
Time: 20:21:47
(UTC-07:00)

Hubble Space Telescope - Visible Passes

Search period start: 17 July 2018 00:00
Search period end: 27 July 2018 00:00
Orbit: 537 x 541 km, 28.5° (Epoch: 17 July)

Date Brightness Start Highest point End Pass type
(mag) Time Alt. Az. Time Alt. Az. Time Alt. Az.
17 Jul 2.4 04:17:01 17° SSW 04:18:32 20° S 04:21:35 10° SE visible
18 Jul 2.2 04:07:10 20° SSW 04:08:05 21° S 04:11:14 10° SE visible
19 Jul 2.1 03:57:23 22° S 03:57:38 22° S 04:00:51 10° SE visible
20 Jul 2.2 03:47:41 22° S 03:47:41 22° S 03:50:25 10° SE visible
21 Jul 2.5 03:38:06 19° SSE 03:38:06 19° SSE 03:39:58 10° SE visible
22 Jul 3.0 03:28:39 14° SE 03:28:39 14° SE 03:29:27 10° SE visible
23 Jul 2.9 04:55:48 10° SSW 04:56:22 10° SSW 04:56:57 10° SSW visible
